User: anonymous   Login
Location: Unspecified
(0.0000°N, 0.0000°E)
Time: 06:15:15
(UTC+00:00)
Language:

CASSIOPE - Orbit

View from above orbital plane
View from above orbital plane
View from above satellite
View from above satellite

Ground track
Ground track

The orbit data is extracted from the following two-line orbital elements,

1 39265U 13055A   17119.93553381 +.00008749 +00000-0 +25521-3 0  9991
2 39265 080.9720 064.9942 0690344 032.7174 331.4856 14.22479291184652
Epoch (UTC): 29 April 2017 22:27:10
Eccentricity: 0.0690344
inclination: 80.9720°
perigee height: 320 km
apogee height: 1313 km
right ascension of ascending node: 64.9942°
argument of perigee: 32.7174°
revolutions per day: 14.22479291
mean anomaly at epoch: 331.4856°
orbit number at epoch: 18465

The dashed part of the orbit path shows where the satellite is in the earth's shadow,  

DLR